Location: Abraham Lincoln Continuation High School
(33.9711°N, 117.3662°W)
Time: 10:21:36
(UTC+00:00)

X-37B - Pass Details

Date: 17 January 2021
Orbit: 383 x 391 km, 45.0° (Epoch: 27 February)

Event Time Altitude Azimuth Distance (km) Brightness Sun altitude
Rises 01:47:41 0° 206° (SSW) 2,256 5.2 -9.1°
Reaches altitude 10° 01:50:04 10° 189° (S) 1,408 3.8 -9.5°
Maximum altitude 01:52:30 20° 138° (SE) 950 2.3 -10.0°
Enters shadow 01:54:17 14° 97° (E) 1,220 2.5 -10.4°
